Pascagoula, MS

1:51 PM CDT on July 27, 2017 (GMT -0500)
Lott International

Weather History for KPQL - October, 2013

Change the Weather History Date:

Monday, October 21, 2013

  Actual Average Record
Temperature  
Mean Temperature 64 °F -  
Max Temperature 73 °F 77 °F 90 °F (1963)
Min Temperature 57 °F 56 °F 32 °F (1989)
Growing Degree Days 14 (Base 50)    
Moisture  
Dew Point 59 °F    
Average Humidity 83    
Maximum Humidity 97    
Minimum Humidity 64    
Precipitation  
Precipitation 0.00 in - - ()
Sea Level Pressure  
Sea Level Pressure 30.03 in    
Wind  
Wind Speed 3 mph (NE)    
Max Wind Speed 8 mph    
Max Gust Speed -    
Visibility 10 miles    
Events      
Averages and records for this station are not official NWS values.
T = Trace of Precipitation, MM = Missing Value Source: NWS Daily Summary

Daily Weather History Graph

Daily Weather History Graph

Search for Another Location

Airport or City:

Trip Planner

Search our weather history database for the weather conditions in past years. The results will help you decide how hot, cold, wet, or windy it might be!

Date:

Astronomy

Oct. 21, 2013 Rise Set
Actual Time 7:00 AM CDT 6:16 PM CDT
Civil Twilight 6:36 AM CDT 6:40 PM CDT
Nautical Twilight 6:08 AM CDT 7:08 PM CDT
Astronomical Twilight 5:40 AM CDT 7:36 PM CDT
Moon 8:18 PM CDT (10/21) 9:26 AM CDT (10/21)
Length of Visible Light 12h 04m
Length of Day
11h 15m
Waning Gibbous, 92% of the Moon is Illuminated
Oct 21
Waning Gibbous
Oct 26
Last Quarter
Nov 3
New
Nov 9
First Quarter
Nov 17
Full

Hourly Weather History & Observations

Time (CDT) Temp. Dew Point Humidity Pressure Visibility Wind Dir Wind Speed Gust Speed Precip Events Conditions
12:53 AM 57.9 °F 57.0 °F 97% 30.04 in 10.0 mi Calm Calm - N/A   Clear
1:53 AM 57.9 °F 57.0 °F 97% 30.03 in 10.0 mi Calm Calm - N/A   Clear
2:53 AM 57.0 °F 55.9 °F 96% 30.03 in 10.0 mi North 3.5 mph - N/A   Clear
3:53 AM 57.9 °F 55.9 °F 93% 30.03 in 10.0 mi Calm Calm - N/A   Clear
4:53 AM 57.9 °F 55.9 °F 93% 30.03 in 10.0 mi North 3.5 mph - N/A   Clear
5:53 AM 59.0 °F 55.9 °F 90% 30.03 in 10.0 mi ENE 3.5 mph - N/A   Scattered Clouds
6:53 AM 57.9 °F 55.9 °F 93% 30.05 in 10.0 mi North 3.5 mph - N/A   Partly Cloudy
7:53 AM 59.0 °F 57.0 °F 93% 30.06 in 10.0 mi Calm Calm - N/A   Clear
8:53 AM 62.1 °F 57.0 °F 84% 30.07 in 10.0 mi NE 5.8 mph - N/A   Clear
9:53 AM 64.9 °F 57.0 °F 75% 30.07 in 10.0 mi NE 4.6 mph - N/A   Clear
10:53 AM 69.1 °F 57.9 °F 68% 30.07 in 10.0 mi NE 8.1 mph - N/A   Clear
11:53 AM 72.0 °F 59.0 °F 64% 30.06 in 10.0 mi NNE 5.8 mph - N/A   Clear
12:53 PM 72.0 °F 59.0 °F 64% 30.05 in 10.0 mi NNE 4.6 mph - N/A   Clear
1:53 PM 72.0 °F 59.0 °F 64% 30.02 in 10.0 mi North 6.9 mph - N/A   Clear
2:53 PM 72.0 °F 60.1 °F 66% 30.00 in 10.0 mi North 8.1 mph - N/A   Clear
3:53 PM 71.1 °F 60.1 °F 68% 30.01 in 10.0 mi NE 3.5 mph - N/A   Mostly Cloudy
4:53 PM 69.1 °F 63.0 °F 81% 30.01 in 10.0 mi NNE 4.6 mph - 0.00 in   Mostly Cloudy
5:53 PM 68.0 °F 61.0 °F 78% 30.01 in 10.0 mi NE 4.6 mph - N/A   Scattered Clouds
6:53 PM 64.9 °F 61.0 °F 87% 30.03 in 10.0 mi Calm Calm - N/A   Partly Cloudy
7:53 PM 66.0 °F 61.0 °F 84% 29.99 in 10.0 mi NE 4.6 mph - N/A   Partly Cloudy
8:53 PM 64.9 °F 61.0 °F 87% 30.02 in 10.0 mi ESE 3.5 mph - N/A   Clear
9:53 PM 64.9 °F 61.0 °F 87% 30.01 in 10.0 mi SE 3.5 mph - N/A   Partly Cloudy
10:53 PM 64.9 °F 61.0 °F 87% 30.00 in 10.0 mi Calm Calm - N/A   Partly Cloudy
11:53 PM 64.9 °F 61.0 °F 87% 29.99 in 10.0 mi Calm Calm - N/A   Mostly Cloudy